Location: Bluff Heights
(33.7692°N, 118.1592°W)
Time: 11:48:22
(UTC+00:00)

S-56A Canister/Altair - Pass Details

Date: 28 July 2021
Orbit: 632 x 2500 km, 38.9° (Epoch: 25 September)

Event Time Altitude Azimuth Distance (km) Brightness Sun altitude
Rises 03:44:28 0° 285° (WNW) 6,180 13.9 -9.7°
Reaches altitude 10° 03:48:38 10° 287° (WNW) 5,144 13.1 -10.4°
Maximum altitude 04:03:34 79° 14° (NNE) 2,170 9.8 -13.0°
Enters shadow 04:13:31 14° 101° (E) 3,636 10.4 -14.7°
